Wetterdaten: aktuell Freitag, 04.09.2026 09:12
Datum Zeit Temp. A. Feuchte A. Luftdruck Regen Wind Richtung Richtung Taupunkt Windchill
04.09.2026 09:12 22,1 °C 62 % 1008,9 hPa 0,0 l/m² 4,5 km/h (1 Bft) O±67.5° 80 ° 14,5 °C 22,1 °C
04.09.2026 09:10 22,1 °C 62 % 1008,9 hPa 0,0 l/m² 0,9 km/h (0 Bft) S-SO±22.5° 150 ° 14,5 °C 22,1 °C
04.09.2026 09:08 22,0 °C 63 % 1008,9 hPa 0,0 l/m² 0,9 km/h (0 Bft) S-SO±22.5° 150 ° 14,6 °C 22,0 °C
04.09.2026 09:06 22,0 °C 63 % 1008,9 hPa 0,0 l/m² 0,3 km/h (0 Bft) SW±45° 215 ° 14,6 °C 22,0 °C
04.09.2026 09:04 22,0 °C 63 % 1008,9 hPa 0,0 l/m² 0,3 km/h (0 Bft) W 260 ° 14,6 °C 22,0 °C
04.09.2026 09:02 21,8 °C 63 % 1009,0 hPa 0,0 l/m² 0,5 km/h (0 Bft) S-SO±45° 165 ° 14,4 °C 21,8 °C
04.09.2026 09:01 21,8 °C 63 % 1009,0 hPa 0,0 l/m² 0,5 km/h (0 Bft) S-SO±45° 165 ° 14,4 °C 21,8 °C
04.09.2026 08:59 21,8 °C 63 % 1009,0 hPa 0,0 l/m² 0,3 km/h (0 Bft) S 180 ° 14,4 °C 21,8 °C
04.09.2026 08:57 21,8 °C 63 % 1009,0 hPa 0,0 l/m² 0,3 km/h (0 Bft) S 180 ° 14,4 °C 21,8 °C
04.09.2026 08:55 21,7 °C 63 % 1009,0 hPa 0,0 l/m² 0,3 km/h (0 Bft) S 180 ° 14,3 °C 21,7 °C
04.09.2026 08:53 21,7 °C 63 % 1009,0 hPa 0,0 l/m² 4,7 km/h (1 Bft) SO±22.5° 125 ° 14,3 °C 21,7 °C
04.09.2026 08:51 21,6 °C 64 % 1009,0 hPa 0,0 l/m² 4,7 km/h (1 Bft) SO±22.5° 125 ° 14,5 °C 21,6 °C
04.09.2026 08:49 21,6 °C 64 % 1009,0 hPa 0,0 l/m² 4,7 km/h (1 Bft) SO±22.5° 125 ° 14,5 °C 21,6 °C
04.09.2026 08:47 21,5 °C 64 % 1009,0 hPa 0,0 l/m² 4,7 km/h (1 Bft) SO±22.5° 125 ° 14,4 °C 21,5 °C
04.09.2026 08:45 21,5 °C 64 % 1009,0 hPa 0,0 l/m² 1,5 km/h (1 Bft) SO 140 ° 14,4 °C 21,5 °C
04.09.2026 08:43 21,5 °C 65 % 1009,0 hPa 0,0 l/m² 1,5 km/h (1 Bft) SO 140 ° 14,6 °C 21,5 °C
04.09.2026 08:41 21,4 °C 65 % 1009,0 hPa 0,0 l/m² 1,5 km/h (1 Bft) SO 140 ° 14,5 °C 21,4 °C
04.09.2026 08:39 21,4 °C 65 % 1009,0 hPa 0,0 l/m² 1,3 km/h (1 Bft) SO±22.5° 130 ° 14,5 °C 21,4 °C
04.09.2026 08:37 21,4 °C 65 % 1009,0 hPa 0,0 l/m² 6,4 km/h (2 Bft) S±67.5° 170 ° 14,5 °C 21,4 °C
04.09.2026 08:35 21,3 °C 66 % 1009,0 hPa 0,0 l/m² 4,6 km/h (1 Bft) S±45° 170 ° 14,7 °C 21,3 °C
04.09.2026 08:32 21,3 °C 66 % 1009,0 hPa 0,0 l/m² 4,6 km/h (1 Bft) S±45° 170 ° 14,7 °C 21,3 °C
04.09.2026 08:30 21,2 °C 66 % 1009,0 hPa 0,0 l/m² 5,7 km/h (1 Bft) SO±22.5° 140 ° 14,6 °C 21,2 °C
04.09.2026 08:28 21,1 °C 66 % 1009,0 hPa 0,0 l/m² 4,0 km/h (1 Bft) S-SO±45° 165 ° 14,5 °C 21,1 °C
04.09.2026 08:26 21,1 °C 66 % 1009,0 hPa 0,0 l/m² 4,0 km/h (1 Bft) S-SO±45° 165 ° 14,5 °C 21,1 °C
04.09.2026 08:24 21,1 °C 66 % 1009,0 hPa 0,0 l/m² 4,0 km/h (1 Bft) S-SO±45° 165 ° 14,5 °C 21,1 °C
04.09.2026 08:22 21,1 °C 66 % 1009,0 hPa 0,0 l/m² 1,1 km/h (1 Bft) S±67.5° 185 ° 14,5 °C 21,1 °C
04.09.2026 08:20 21,1 °C 66 % 1009,0 hPa 0,0 l/m² 4,3 km/h (1 Bft) SO±22.5° 130 ° 14,5 °C 21,1 °C
04.09.2026 08:19 21,0 °C 66 % 1009,0 hPa 0,0 l/m² 4,3 km/h (1 Bft) SO±22.5° 130 ° 14,4 °C 21,0 °C
04.09.2026 08:17 20,9 °C 66 % 1009,0 hPa 0,0 l/m² 0,9 km/h (0 Bft) S±67.5° 170 ° 14,3 °C 20,9 °C
04.09.2026 08:15 20,9 °C 66 % 1010,0 hPa 0,0 l/m² 3,0 km/h (1 Bft) S±45° 190 ° 14,3 °C 20,9 °C
04.09.2026 08:13 20,9 °C 66 % 1010,0 hPa 0,0 l/m² 0,3 km/h (0 Bft) S 180 ° 14,3 °C 20,9 °C
04.09.2026 08:11 20,8 °C 66 % 1010,0 hPa 0,0 l/m² 0,3 km/h (0 Bft) S 180 ° 14,2 °C 20,8 °C
04.09.2026 08:09 20,8 °C 66 % 1010,0 hPa 0,0 l/m² 0,6 km/h (0 Bft) S 185 ° 14,2 °C 20,8 °C
04.09.2026 08:07 20,8 °C 66 % 1010,0 hPa 0,0 l/m² 1,3 km/h (1 Bft) S±22.5° 170 ° 14,2 °C 20,8 °C
04.09.2026 08:05 20,7 °C 66 % 1010,0 hPa 0,0 l/m² 0,5 km/h (0 Bft) S-SO 150 ° 14,1 °C 20,7 °C
04.09.2026 08:03 20,7 °C 66 % 1010,0 hPa 0,0 l/m² 0,5 km/h (0 Bft) S-SO 150 ° 14,1 °C 20,7 °C
04.09.2026 08:01 20,6 °C 67 % 1010,0 hPa 0,0 l/m² 0,4 km/h (0 Bft) S-SO 150 ° 14,3 °C 20,6 °C
04.09.2026 07:59 20,7 °C 66 % 1010,0 hPa 0,0 l/m² 0,1 km/h (0 Bft) SO 140 ° 14,1 °C 20,7 °C
04.09.2026 07:57 20,7 °C 66 % 1010,0 hPa 0,0 l/m² 0,1 km/h (0 Bft) SO 140 ° 14,1 °C 20,7 °C
04.09.2026 07:55 20,6 °C 66 % 1010,0 hPa 0,0 l/m² 0,1 km/h (0 Bft) SO 145 ° 14,0 °C 20,6 °C
04.09.2026 07:53 20,6 °C 66 % 1010,0 hPa 0,0 l/m² 0,0 km/h (0 Bft) SO 145 ° 14,0 °C 20,6 °C
_ Min-Zeit 04:29 00:00 09:10 - 00:00 - - 00:00 05:38
Minimum _ 19,8 °C 53 % 1008,9 hPa - 0,0 km/h (0 Bft) - - 11,4 °C 19,4 °C
_ Max-Zeit 09:10 08:01 01:53 00:00 05:38 - - 08:32 09:10
Maximum _ 22,1 °C 67 % 1012,1 hPa 0,0 l/m² 8,2 km/h
SO (2 Bft)
- - 14,7 °C 22,1 °C
Durchschnitt _ 20,4 °C 62 % 1010,8 hPa #0,0 l/m² 0,6 km/h (0 Bft) SO - 12,9 °C 20,4 °C